Weather History for Newark, NJ

Change the Weather History Date:

Monday, March 4, 2013

  Actual Average Record
Temperature  
Mean Temperature 36 °F 38 °F  
Max Temperature 44 °F 47 °F 72 °F (1974)
Min Temperature 27 °F 30 °F 6 °F (1943)
Degree Days  
Heating Degree Days 29 27  
Month to date heating degree days 112 108  
Since 1 July heating degree days 3492 3743  
Cooling Degree Days 0 0  
Month to date cooling degree days 0 0  
Year to date cooling degree days 0 0  
Moisture  
Dew Point 17 °F    
Average Humidity 50    
Maximum Humidity 63    
Minimum Humidity 36    
Precipitation  
Precipitation 0.00 in 0.12 in 1.29 in (1977)
Month to date precipitation T 0.48  
Year to date precipitation 6.34 6.90  
Snow  
Snow 0.00 in 0.20 in 3.70 in (1971)
Month to date snowfall T 0.9  
Since 1 July snowfall 20.7 23.9  
Snow Depth 0.00 in    
Sea Level Pressure  
Sea Level Pressure 29.82 in    
Wind  
Wind Speed 16 mph (NW)    
Max Wind Speed 26 mph    
Max Gust Speed 32 mph    
Visibility 10 miles    
Events      
T = Trace of Precipitation, MM = Missing Value Source: NWS Daily Summary

Daily Weather History Graph

Daily Weather History Graph

Search for Another Location

Airport:

Trip Planner

Search our weather history database for the weather conditions in past years. The results will help you decide how hot, cold, wet, or windy it might be!

Date:

Astronomy

Mar. 04, 2013 Rise Set
Actual Time 6:25 AM EST 5:51 PM EST
Civil Twilight 5:58 AM EST 6:19 PM EST
Nautical Twilight 5:26 AM EST 6:50 PM EST
Astronomical Twilight 4:54 AM EST 7:22 PM EST
Moon 12:33 AM EST (3/4) 10:29 AM EST (3/4)
Length of Visible Light 12h 20m
Length of Day
11h 26m
Waning Gibbous, 52% of the Moon is Illuminated
Mar 4
Waning Gibbous
Mar 4
Last Quarter
Mar 11
New
Mar 19
First Quarter
Mar 27
Full

Hourly Weather History & Observations

Time (EST) Temp. Windchill Dew Point Humidity Pressure Visibility Wind Dir Wind Speed Gust Speed Precip Events Conditions
12:51 AM 28.0 °F 17.5 °F 14.0 °F 56% 29.79 in 10.0 mi WNW 12.7 mph - N/A   Partly Cloudy
1:51 AM 28.0 °F 18.6 °F 12.9 °F 53% 29.78 in 10.0 mi NW 10.4 mph 19.6 mph N/A   Clear
2:51 AM 27.0 °F 17.3 °F 14.0 °F 58% 29.78 in 10.0 mi WNW 10.4 mph 23.0 mph N/A   Clear
3:51 AM 27.0 °F 17.3 °F 16.0 °F 63% 29.79 in 10.0 mi WNW 10.4 mph - N/A   Partly Cloudy
4:51 AM 28.0 °F 19.3 °F 17.1 °F 63% 29.80 in 10.0 mi NW 9.2 mph - N/A   Scattered Clouds
5:51 AM 28.0 °F 18.6 °F 17.1 °F 63% 29.81 in 10.0 mi WNW 10.4 mph 17.3 mph N/A   Scattered Clouds
6:49 AM 28.4 °F 18.0 °F 17.6 °F 64% 29.82 in 10.0 mi NW 12.7 mph 18.4 mph N/A   Mostly Cloudy
6:51 AM 28.4 °F 17.5 °F 17.6 °F 64% 29.82 in 10.0 mi WNW 13.8 mph 19.6 mph N/A   Mostly Cloudy
7:51 AM 30.9 °F 19.8 °F 18.0 °F 59% 29.83 in 10.0 mi NW 16.1 mph 28.8 mph N/A   Mostly Cloudy
8:51 AM 33.1 °F 21.9 °F 17.1 °F 52% 29.82 in 10.0 mi NW 18.4 mph 27.6 mph N/A   Mostly Cloudy
9:51 AM 35.1 °F 25.5 °F 17.1 °F 48% 29.83 in 10.0 mi NW 15.0 mph 26.5 mph N/A   Scattered Clouds
10:51 AM 37.9 °F 27.6 °F 18.0 °F 45% 29.82 in 10.0 mi WNW 20.7 mph 27.6 mph N/A   Scattered Clouds
11:51 AM 39.9 °F 31.1 °F 18.0 °F 41% 29.80 in 10.0 mi NW 17.3 mph - N/A   Scattered Clouds
12:51 PM 42.1 °F 32.3 °F 18.0 °F 38% 29.79 in 10.0 mi NW 24.2 mph 31.1 mph N/A   Scattered Clouds
1:51 PM 43.0 °F 34.2 °F 18.0 °F 37% 29.78 in 10.0 mi WNW 20.7 mph 27.6 mph N/A   Scattered Clouds
2:51 PM 43.0 °F 34.2 °F 18.0 °F 37% 29.79 in 10.0 mi WNW 20.7 mph 28.8 mph N/A   Scattered Clouds
3:51 PM 41.0 °F 31.4 °F 17.1 °F 38% 29.79 in 10.0 mi NW 21.9 mph 31.1 mph N/A   Partly Cloudy
4:51 PM 41.0 °F 31.9 °F 17.1 °F 38% 29.81 in 10.0 mi NW 19.6 mph 27.6 mph N/A   Partly Cloudy
5:51 PM 39.0 °F 30.6 °F 17.1 °F 41% 29.83 in 10.0 mi NW 15.0 mph 25.3 mph N/A   Partly Cloudy
6:51 PM 37.0 °F 28.9 °F 17.1 °F 44% 29.85 in 10.0 mi WNW 12.7 mph 23.0 mph N/A   Partly Cloudy
7:51 PM 36.0 °F 26.7 °F 17.1 °F 46% 29.87 in 10.0 mi WNW 15.0 mph - N/A   Partly Cloudy
8:51 PM 35.1 °F 28.6 °F 18.0 °F 50% 29.89 in 10.0 mi NW 8.1 mph - N/A   Partly Cloudy
9:51 PM 35.6 °F 25.2 °F 17.6 °F 48% 29.90 in 10.0 mi NW 18.4 mph 29.9 mph N/A   Scattered Clouds
10:51 PM 34.0 °F 22.1 °F 18.0 °F 52% 29.91 in 10.0 mi NW 21.9 mph 28.8 mph N/A   Scattered Clouds
11:51 PM 33.1 °F 22.2 °F 19.0 °F 56% 29.91 in 10.0 mi NW 17.3 mph - N/A   Partly Cloudy